Dubuque, IA

12:01 PM CDT on October 20, 2017 (GMT -0500)
Dubuque Regional

Weather History for KDBQ - November, 2011

Change the Weather History Date:

Monday, November 21, 2011

  Actual Average Record
Temperature  
Mean Temperature 35 °F 34 °F  
Max Temperature 45 °F 42 °F 69 °F (1913)
Min Temperature 25 °F 26 °F -5 °F (1880)
Degree Days  
Heating Degree Days 30 31  
Month to date heating degree days 512 543  
Since 1 July heating degree days 1152 1192  
Cooling Degree Days 0 0  
Month to date cooling degree days 0 0  
Year to date cooling degree days 795 643  
Moisture  
Dew Point 29 °F    
Average Humidity 77    
Maximum Humidity 92    
Minimum Humidity 62    
Precipitation  
Precipitation 0.00 in 0.08 in 1.36 in (1934)
Month to date precipitation 3.52 1.66  
Year to date precipitation 43.28 33.76  
Snow  
Snow 0.00 in 0.10 in - ()
Month to date snowfall 1.6 1.2  
Since 1 July snowfall 1.6 1.2  
Since 1 September snowfall 1.6 1.2  
Snow Depth 0.00 in    
Sea Level Pressure  
Sea Level Pressure 30.27 in    
Wind  
Wind Speed 7 mph (ENE)    
Max Wind Speed 12 mph    
Max Gust Speed 15 mph    
Visibility 8 miles    
Events      
T = Trace of Precipitation, MM = Missing Value Source: NWS Daily Summary

Daily Weather History Graph

Daily Weather History Graph

Search for Another Location

Airport or City:

Trip Planner

Search our weather history database for the weather conditions in past years. The results will help you decide how hot, cold, wet, or windy it might be!

Date:

Astronomy

Nov. 21, 2011 Rise Set
Actual Time 7:00 AM CST 4:36 PM CST
Civil Twilight 6:30 AM CST 5:06 PM CST
Nautical Twilight 5:55 AM CST 5:41 PM CST
Astronomical Twilight 5:22 AM CST 6:14 PM CST
Moon 2:35 AM CST (11/21) 2:02 PM CST (11/21)
Length of Visible Light 10h 36m
Length of Day
9h 35m
Waning Crescent, 17% of the Moon is Illuminated
Nov 21
Waning Crescent
Nov 25
New
Dec 2
First Quarter
Dec 10
Full
Dec 17
Last Quarter

Hourly Weather History & Observations

Time (CST) Temp. Windchill Dew Point Humidity Pressure Visibility Wind Dir Wind Speed Gust Speed Precip Events Conditions
12:53 AM 28.9 °F 22.8 °F 25.0 °F 85% 30.33 in 10.0 mi East 5.8 mph - N/A   Clear
1:53 AM 27.0 °F 21.6 °F 24.1 °F 89% 30.32 in 10.0 mi NE 4.6 mph - N/A   Clear
2:53 AM 26.1 °F 17.6 °F 25.0 °F 96% 30.33 in 7.0 mi NE 8.1 mph - N/A   Clear
3:53 AM 27.0 °F 19.5 °F 25.0 °F 92% 30.32 in 8.0 mi ENE 6.9 mph - N/A   Clear
4:53 AM 27.0 °F 19.5 °F 25.0 °F 92% 30.32 in 8.0 mi ENE 6.9 mph - N/A   Clear
5:26 AM 26.6 °F 20.0 °F 24.8 °F 93% 30.29 in 8.0 mi NE 5.8 mph - N/A   Mostly Cloudy
5:44 AM 26.6 °F 19.1 °F 24.8 °F 93% 30.29 in 7.0 mi NE 6.9 mph - N/A   Scattered Clouds
5:53 AM 26.6 °F 17.5 °F 24.8 °F 93% 30.29 in 7.0 mi NNE 9.2 mph - N/A   Partly Cloudy
6:53 AM 26.1 °F 20.5 °F 24.1 °F 92% 30.34 in 5.0 mi NNE 4.6 mph - N/A   Clear
7:53 AM 28.9 °F 22.8 °F 26.1 °F 89% 30.35 in 8.0 mi NNE 5.8 mph - N/A   Clear
8:53 AM 30.9 °F 24.3 °F 28.0 °F 89% 30.35 in 6.0 mi NE 6.9 mph - N/A   Clear
9:53 AM 35.1 °F 27.4 °F 30.0 °F 82% 30.34 in 10.0 mi East 10.4 mph - N/A   Clear
10:53 AM 39.0 °F 32.3 °F 32.0 °F 76% 30.32 in 10.0 mi East 10.4 mph - N/A   Clear
11:53 AM 41.0 °F 37.1 °F 32.0 °F 70% 30.29 in 10.0 mi ESE 5.8 mph - N/A   Clear
12:53 PM 42.8 °F 40.1 °F 32.0 °F 66% 30.23 in 10.0 mi ENE 4.6 mph - N/A   Clear
1:53 PM 45.0 °F 41.8 °F 32.0 °F 60% 30.25 in 10.0 mi NE 5.8 mph - N/A   Clear
2:53 PM 44.1 °F 40.1 °F 32.0 °F 63% 30.24 in 10.0 mi ESE 6.9 mph - N/A   Clear
3:53 PM 42.1 °F 36.6 °F 32.0 °F 67% 30.22 in 10.0 mi ENE 9.2 mph - N/A   Clear
4:53 PM 39.9 °F 33.9 °F 30.9 °F 70% 30.23 in 10.0 mi ENE 9.2 mph - N/A   Clear
5:53 PM 39.0 °F 34.0 °F 30.9 °F 73% 30.24 in 10.0 mi ENE 6.9 mph - N/A   Clear
6:53 PM 37.9 °F 32.1 °F 30.9 °F 76% 30.23 in 10.0 mi ENE 8.1 mph - N/A   Clear
7:53 PM 36.0 °F 31.1 °F 30.0 °F 79% 30.23 in 10.0 mi ENE 5.8 mph - N/A   Clear
8:53 PM 35.1 °F 29.3 °F 30.9 °F 85% 30.20 in 9.0 mi ENE 6.9 mph - N/A   Clear
9:53 PM 33.1 °F 27.7 °F 30.0 °F 89% 30.22 in 8.0 mi ENE 5.8 mph - N/A   Clear
10:53 PM 32.0 °F 26.4 °F 30.0 °F 92% 30.21 in 6.0 mi NE 5.8 mph - N/A   Clear
11:21 PM 33.8 °F 28.6 °F 30.2 °F 87% 30.20 in 6.0 mi NNE 5.8 mph - N/A   Mostly Cloudy
11:53 PM 33.1 °F 27.7 °F 30.9 °F 92% 30.24 in 6.0 mi NE 5.8 mph - N/A   Overcast